Location: Hoyos del Collado
(40.3594°N, 5.2003°W)
Time: 12:53:51
(UTC+00:00)

NOSS 3-2 (A) - Pass Details

Date: 18 April 2024
Orbit: 704 x 1502 km, 63.4° (Epoch: 12 April)

Event Time Altitude Azimuth Distance (km) Brightness Sun altitude
Rises 22:57:27 0° 327° (NNW) 3,944 7.7 -35.0°
Reaches altitude 10° 22:59:59 10° 330° (NNW) 3,090 6.9 -35.2°
Enters shadow 23:07:20 68° 43° (NE) 1,418 4.2 -35.7°
